Weather History for Mt. Pocono, PA

Change the Weather History Date:

Saturday, November 3, 2012

  Actual Average Record
Temperature  
Mean Temperature 36 °F 43 °F  
Max Temperature 40 °F 52 °F 73 °F (2003)
Min Temperature 32 °F 35 °F 18 °F (1980)
Degree Days  
Heating Degree Days 29 22  
Month to date heating degree days 81 65  
Since 1 July heating degree days 743 853  
Cooling Degree Days 0 0  
Month to date cooling degree days 0 0  
Year to date cooling degree days 453 314  
Moisture  
Dew Point 27 °F    
Average Humidity 73    
Maximum Humidity 82    
Minimum Humidity 64    
Precipitation  
Precipitation T in 0.13 in 1.79 in (1951)
Month to date precipitation 0.06 0.38  
Year to date precipitation 41.88 40.68  
Sea Level Pressure  
Sea Level Pressure 29.87 in    
Wind  
Wind Speed 15 mph (NW)    
Max Wind Speed 25 mph    
Max Gust Speed 35 mph    
Visibility 10 miles    
Events Rain    
T = Trace of Precipitation, MM = Missing Value Source: NWS Daily Summary

Daily Weather History Graph

Daily Weather History Graph

Search for Another Location

Airport:

Trip Planner

Search our weather history database for the weather conditions in past years. The results will help you decide how hot, cold, wet, or windy it might be!

Date:

Astronomy

Nov. 03, 2012 Rise Set
Actual Time 7:35 AM EDT 5:54 PM EDT
Civil Twilight 7:06 AM EDT 6:22 PM EDT
Nautical Twilight 6:34 AM EDT 6:55 PM EDT
Astronomical Twilight 6:01 AM EDT 7:27 PM EDT
Moon 9:32 PM EDT (11/3) 11:39 AM EDT (11/3)
Length of Visible Light 11h 16m
Length of Day
10h 18m
Waning Gibbous, 80% of the Moon is Illuminated
Nov 3
Waning Gibbous
Nov 6
Last Quarter
Nov 13
New
Nov 20
First Quarter
Nov 28
Full

Hourly Weather History & Observations

Time (EDT) Temp. Windchill Dew Point Humidity Pressure Visibility Wind Dir Wind Speed Gust Speed Precip Events Conditions
12:53 AM 34.0 °F 24.2 °F 28.0 °F 79% 29.79 in - WNW 15.0 mph 25.3 mph N/A   Overcast
1:53 AM 34.0 °F 24.2 °F 28.0 °F 79% 29.79 in - NW 15.0 mph 23.0 mph N/A   Overcast
2:53 AM 34.0 °F 24.6 °F 28.0 °F 79% 29.80 in - NW 13.8 mph 24.2 mph N/A   Overcast
3:53 AM 34.0 °F 23.0 °F 28.0 °F 79% 29.79 in 10.0 mi NW 18.4 mph 25.3 mph N/A   Overcast
4:53 AM 34.0 °F 23.0 °F 28.0 °F 79% 29.80 in - NW 18.4 mph 32.2 mph N/A   Overcast
5:53 AM 34.0 °F 25.0 °F 28.0 °F 79% 29.81 in 10.0 mi NW 12.7 mph 21.9 mph N/A   Overcast
6:53 AM 34.0 °F 24.2 °F 28.0 °F 79% 29.82 in 10.0 mi NW 15.0 mph 27.6 mph N/A   Overcast
7:53 AM 34.0 °F 24.6 °F 28.0 °F 79% 29.85 in 10.0 mi NW 13.8 mph 28.8 mph N/A   Overcast
8:53 AM 34.0 °F 25.5 °F 28.9 °F 82% 29.88 in 10.0 mi WNW 11.5 mph 21.9 mph 0.00 in   Overcast
9:22 AM 35.6 °F 25.5 °F 28.4 °F 75% 29.83 in 10.0 mi WNW 17.3 mph 25.3 mph N/A   Overcast
9:53 AM 37.0 °F 29.8 °F 28.9 °F 73% 29.89 in 10.0 mi NW 10.4 mph 24.2 mph N/A   Mostly Cloudy
10:01 AM 35.6 °F 25.5 °F 28.4 °F 75% 29.84 in 10.0 mi NW 17.3 mph 27.6 mph N/A   Mostly Cloudy
10:42 AM 35.6 °F 25.2 °F 28.4 °F 75% 29.85 in 10.0 mi NW 18.4 mph 29.9 mph N/A   Overcast
10:49 AM 35.6 °F 24.2 °F 28.4 °F 75% 29.85 in 10.0 mi NW 21.9 mph 29.9 mph N/A   Overcast
10:53 AM 36.0 °F 26.7 °F 28.0 °F 73% 29.89 in 10.0 mi WNW 15.0 mph 29.9 mph N/A   Mostly Cloudy
11:53 AM 39.0 °F 31.4 °F 28.0 °F 65% 29.89 in 10.0 mi NNW 12.7 mph 27.6 mph N/A   Overcast
12:53 PM 37.9 °F 29.6 °F 27.0 °F 65% 29.89 in 10.0 mi NW 13.8 mph 27.6 mph N/A   Overcast
1:53 PM 39.0 °F 29.3 °F 28.0 °F 65% 29.88 in 10.0 mi NW 19.6 mph 28.8 mph N/A   Overcast
2:08 PM 37.4 °F 27.2 °F 28.4 °F 70% 29.83 in 10.0 mi WNW 19.6 mph 29.9 mph N/A   Overcast
2:53 PM 37.9 °F 28.5 °F 28.0 °F 68% 29.89 in 10.0 mi NW 17.3 mph 26.5 mph N/A   Overcast
3:08 PM 37.4 °F 27.5 °F 28.4 °F 70% 29.85 in 10.0 mi NW 18.4 mph 31.1 mph 0.00 in Rain Light Rain
3:20 PM 37.4 °F 29.8 °F 28.4 °F 70% 29.85 in 10.0 mi NW 11.5 mph 26.5 mph 0.00 in   Overcast
3:53 PM 37.0 °F 27.7 °F 27.0 °F 67% 29.91 in 10.0 mi NW 16.1 mph 24.2 mph 0.00 in   Overcast
4:00 PM 37.4 °F 27.8 °F 26.6 °F 65% 29.87 in 10.0 mi NW 17.3 mph 26.5 mph N/A   Overcast
4:53 PM 37.0 °F 27.0 °F 26.1 °F 65% 29.92 in 10.0 mi NNW 18.4 mph 28.8 mph N/A   Overcast
5:53 PM 37.0 °F 27.4 °F 26.1 °F 65% 29.93 in 10.0 mi NW 17.3 mph 27.6 mph N/A   Overcast
6:36 PM 35.6 °F 25.9 °F 26.6 °F 70% 29.89 in 10.0 mi NW 16.1 mph 24.2 mph N/A   Overcast
6:53 PM 36.0 °F 25.6 °F 27.0 °F 70% 29.94 in 10.0 mi NW 18.4 mph 26.5 mph N/A   Overcast
7:30 PM 35.6 °F 25.9 °F 26.6 °F 70% 29.90 in 10.0 mi NW 16.1 mph 27.6 mph 0.00 in   Overcast
7:53 PM 35.1 °F 25.9 °F 25.0 °F 67% 29.96 in 10.0 mi NW 13.8 mph 33.4 mph 0.00 in   Overcast
8:53 PM 35.1 °F 26.4 °F 25.0 °F 67% 29.96 in 10.0 mi NW 12.7 mph 25.3 mph N/A   Overcast
9:53 PM 34.0 °F 24.2 °F 26.1 °F 73% 29.96 in 10.0 mi NW 15.0 mph 27.6 mph N/A   Overcast
10:53 PM 34.0 °F 24.6 °F 26.1 °F 73% 29.98 in 10.0 mi NW 13.8 mph 24.2 mph N/A   Overcast
11:53 PM 33.1 °F 22.2 °F 26.1 °F 75% 29.96 in 10.0 mi NW 17.3 mph 29.9 mph N/A   Overcast